Tracking 35237 objects as of 5-Sep-2026
HD Live streaming from Space Station
objects crossing your sky now

NEE 02 KRYSAOR

Track NEE 02 KRYSAOR now!
10-day predictions
NEE 02 KRYSAOR is classified as:


NORAD ID: 39441
Int'l Code: 2013-066AB
Launch date: November 21, 2013
Source: Ecuador (ECU)
Launch site: Orenburg, Russia (OREN)

Uplink (MHz):
Downlink (MHz): 980.000
Beacon (MHz):
Mode:
Call sign:
Status:

Your satellite tracking list
Your tracking list is empty




NASA's NSSDC Master Catalog

Two Line Element Set (TLE):
1 39441U 13066AB  26247.55717225  .00000840  00000-0  96778-4 0  9995
2 39441  97.8923 186.2345 0065903 168.0479 192.2319 14.86881073687990
Source of the keplerian elements: AFSPC